Showing default

TIGER-8, 59120

Orbit data source: Space-Track

TIGER-8, 59120 is a payload satellite owned by OQ Tech (RW) in SSO that was launched on Mon, 04 Mar 2024 UTC via an FALCON 9 launch vehicle from the Air Force Western Test Range (AFWTR). Payload-class satellites include a variety of spacecraft equipped with specific instruments for various scientific and technological missions. These include communications satellites like Starlink; space stations such as the ISS; scientific satellites like the Hubble; Earth observation satellites from companies like Planet Labs, Umbra, and HawkEye 360; GPS; miniature CubeSats for education and research; and military/defense satellites.

Loading next visibility...
Identifier
59120, 2024-043Y
Orbit
SSO
Country
Flag of RWRW / RWA
Related business
Manufacturer
NanoAvionics
Mission
Operational Commercial Communications
Bus & Motor
CUBESAT 6U, Unknown motor
Mass
~10 kg wet, ~10 kg dry
Launch date (UTC)
2024-03-04 (2 years ago)
Launch vehicle
FALCON 9
Launch site
Air Force Western Test Range (AFWTR)
Object type
Payload
Rocket body
Debris
Shape & HBR
Box + 2 Pan, 0.1 m
Radar Cross Section
0.080 m², Small (<0.1 m²)

Expand to show TLE details & history
Last TLE update: 10 hours ago

TLE from 10 hours ago
0 TIGER-8
1 59120U 24043Y   25289.15227951  .00011262  00000-0  29564-3 0  9999
2 59120  97.5268  64.6780 0008580  10.8093 349.3335 15.38771925 90185
Epoch: 2025-10-16T03:39Z
TLE epoch observation values (Epoch: 2025-10-16T03:39:16.949Z)
Latitude
-0.00001°
Longitude
-15.05872°
Altitude
447.094 km
Speed
7.647 km/s
True Right ascension
04h 18m 42s
True Declination
0° 00' 00"
Sunlit
Object was in full shadow at epoch
Visualization orbit readout
Latitude
Unknown
Longitude
Unknown
Altitude
Unknown
Speed
Unknown
Apparent Right ascension
Unknown
Apparent Declination
Unknown
Sunlit
N/A
Visualization observer readout
Local Sidereal Time
08:18:26
Azimuth
Unknown
Elevation
Unknown
Doppler factor
Unknown
Orbital elements
Apogee altitude
452.542 km
Perigee altitude
440.83 km
Semi-major axis
6,824.823 km
Eccentricity
0.00086
Inclination
97.5268°
RAAN
64.678°
Arg. of periapsis
10.8093°
True anomaly
349.31528°
Mean anomaly
349.3335°
Eccentric anomaly
349.32439°
Mean motion
3.84952 °/min
Orbital period
93.52 mins
BSTAR
0.00029564
Loading maneuver chart data...
Computing Atmospheric mass density...
Loading historical data...
Loading historical data...
Loading historical data...
Loading historical data...
Loading historical data...
Loading historical data...
Loading historical data...

Documentation

Showing up to 5 results
|